www.pogodaiklimat.ru

Погода и климат >> Архив погоды >> Антарктида >> Halley


ПОГОДА в Halley

  • Прогноз погоды в Halley
  • Монитор погоды в Halley
  • Климат города

АРХИВ ПОГОДЫ в Halley

Время (UTC), дата Ветер
(напр.,м/с)
 
Видим.   Явления Облачность Т
(С)
Тd
(С)
f
(%)
Тe
(С)
Тes
(С)
Комфортность P
(гПа)
Po
(гПа)
Тmin
(С)
Tmax
(С)
R
(мм)
R24
(мм)
S
(см)
04 19.06 В 14 н/о н/о -17.6 -19.1 88 -32 -32 опасность
обморожения
972.7 968.8
06 19.06 В 13 н/о н/о -17.4 -18.9 88 -31 -31 опасность
обморожения
974.5 970.6
08 19.06 В 15 н/о н/о -17.1 -18.6 88 -32 -32 опасность
обморожения
975.5 971.6
09 19.06 В 15 н/о н/о -16.7 -18.2 88 -31 -31 опасность
обморожения
975.8 971.9
11 19.06 В 15 н/о н/о -16.4 -17.9 88 -31 -31 опасность
обморожения
976.9 973.0
14 19.06 В 15 н/о н/о -15.7 -17.1 89 -30 -30 978.5 974.6
13 19.06 В 15 н/о н/о -16.0 -17.4 89 -31 -31 опасность
обморожения
978.2 974.3
15 19.06 В 16 н/о н/о -15.5 -16.9 89 -30 -30 978.8 974.9
16 19.06 В 16 н/о н/о -14.9 -16.2 90 -29 -29 979.3 975.4
18 19.06 В 16 н/о н/о -13.9 -15.1 91 -28 -28 980.1 976.2
19 19.06 В 17 н/о н/о -13.0 -14.2 91 -27 -27 980.1 976.3
20 19.06 СВ 18 н/о н/о -12.6 -13.3 94 -27 -27 980.1 976.3
21 19.06 В 17 н/о н/о -12.6 -13.7 91 -27 -27 980.2 976.4
00 20.06 В 17 н/о н/о -12.9 -14.0 91 -27 -27 981.2 977.4
01 20.06 В 17 н/о н/о -12.2 -13.2 92 -26 -26 981.3 977.5
02 20.06 В 21 н/о н/о -12.9 -14.0 91 -28 -28 980.8 977.0
04 20.06 В 20 н/о н/о -12.6 -13.7 91 -27 -27 981.8 978.0
05 20.06 СВ 17 н/о н/о -12.7 -13.8 91 -27 -27 983.2 979.3
06 20.06 В 20 н/о н/о -12.7 -13.8 91 -27 -27 983.2 979.3
07 20.06 СВ 17 н/о н/о -13.3 -14.5 91 -27 -27 983.9 980.0
11 20.06 СВ 15 н/о н/о -14.7 -16.0 90 -29 -29 989.4 985.5
12 20.06 СВ 2 н/о н/о -19.8 -22.8 77
14 20.06 В 12 н/о н/о -15.1 -16.5 89 -28 -28 991.9 988.0
17 20.06 В 15 н/о н/о -14.9 -16.3 89 -29 -29 992.5 988.6
16 20.06 В 13 н/о н/о -15.4 -16.7 90 -29 -29 992.7 988.8
19 20.06 В 16 н/о н/о -13.8 -15.0 91 -28 -28 992.5 988.6
20 20.06 В 15 н/о н/о -13.7 -15.0 90 -27 -27 992.9 989.0
23 20.06 В 15 н/о н/о -14.6 -15.9 90 -28 -28 992.8 988.9
22 20.06 В 14 н/о н/о -14.3 -15.7 89 -28 -28 992.6 988.7
00 21.06 В 14 н/о н/о -14.6 -16.0 89 -28 -28 992.8 988.9
01 21.06 В 15 н/о н/о -14.7 -16.0 90 -29 -29 992.7 988.8
03 21.06 В 16 н/о н/о -14.6 -15.9 90 -29 -29 992.6 988.7
04 21.06 В 15 н/о н/о -14.8 -16.1 90 -29 -29 992.1 988.2
05 21.06 В 15 н/о н/о -14.8 -16.2 89 -29 -29 992.0 988.1
07 21.06 В 14 н/о н/о -14.8 -16.2 89 -29 -29 992.3 988.4
08 21.06 В 15 н/о н/о -14.8 -16.1 90 -29 -29 992.3 988.4
09 21.06 В 14 н/о н/о -14.6 -15.9 90 -28 -28 992.4 988.5
10 21.06 В 14 н/о н/о -14.9 -16.2 90 -29 -29 992.6 988.7
11 21.06 В 14 н/о н/о -15.3 -16.7 89 -29 -29 992.3 988.4
12 21.06 В 12 н/о н/о -15.6 -17.0 89 -29 -29 992.1 988.2
13 21.06 В 12 н/о н/о -16.5 -18.1 87 -30 -30 992.4 988.5
14 21.06 В 10 н/о н/о -17.2 -19.1 85 -30 -30 992.1 988.1
15 21.06 В 10 н/о н/о -18.2 -20.2 84 -31 -31 опасность
обморожения
992.0 988.0
16 21.06 В 10 н/о н/о -18.7 -20.8 83 -32 -32 опасность
обморожения
991.6 987.6
17 21.06 В 8 н/о н/о -20.2 -22.5 82 -32 -32 опасность
обморожения
991.6 987.6
18 21.06 В 7 н/о н/о -21.5 -24.0 80 -34 -34 опасность
обморожения
990.7 986.7
19 21.06 В 6 н/о н/о -22.8 -25.3 80 -34 -34 опасность
обморожения
990.5 986.5
20 21.06 В 5 н/о н/о -24.3 -26.8 80 -35 -35 опасность
обморожения
990.2 986.1
21 21.06 В 2 н/о н/о -26.2 -28.7 79 -32 -32 опасность
обморожения
989.7 985.6
22 21.06 н/о н/о -28.5 -31.3 77 988.8 984.7
23 21.06 н/о н/о -29.8 -32.7 76 987.6 983.5
01 22.06 В 1 н/о н/о -29.4 -32.2 77 -34 -34 опасность
обморожения
985.8 981.7
02 22.06 В 3 н/о н/о -27.4 -29.8 80 -37 -37 опасность
обморожения
984.4 980.3
03 22.06 З 6 н/о н/о -23.7 -25.8 83 -35 -35 опасность
обморожения
982.2 978.2
05 22.06 ЮЗ 2 н/о н/о -24.0 -27.1 75 -31 -31 опасность
обморожения
980.6 976.6
06 22.06 В 4 н/о н/о -26.4 -29.1 78 -37 -37 опасность
обморожения
980.5 976.4
07 22.06 В 4 н/о н/о -29.8 -32.5 77 -41 -41 опасность
обморожения
980.4 976.3
09 22.06 В 4 н/о н/о -31.8 -34.8 75 -44 -44 опасность
обморожения
980.7 976.6
10 22.06 В 2 н/о н/о -33.6 -36.9 72 -42 -42 опасность
обморожения
980.7 976.5
11 22.06 В 2 н/о н/о -33.6 -36.7 73 -42 -42 опасность
обморожения
981.0 976.8
12 22.06 В 7 н/о н/о -29.5 -32.4 76 -44 -44 опасность
обморожения
980.9 976.8
15 22.06 ЮВ 4 н/о н/о -27.0 -29.7 78 -37 -37 опасность
обморожения
981.0 976.9
16 22.06 ЮВ 3 н/о н/о -26.0 -28.6 79 -34 -34 опасность
обморожения
981.0 976.9
17 22.06 ЮВ 3 н/о н/о -25.3 -27.8 80 -33 -33 опасность
обморожения
981.0 977.0
19 22.06 ЮВ 2 н/о н/о -27.4 -30.2 77 -35 -35 опасность
обморожения
981.5 977.4
20 22.06 Ю 2 н/о н/о -29.7 -32.4 77 -37 -37 опасность
обморожения
982.2 978.1
21 22.06 ЮВ 3 н/о н/о -29.4 -32.3 76 -39 -39 опасность
обморожения
982.2 978.1
22 22.06 ЮВ 3 н/о н/о -29.9 -32.9 75 -39 -39 опасность
обморожения
982.4 978.3
23 22.06 В 3 н/о н/о -32.0 -35.0 75 -41 -41 опасность
обморожения
983.1 978.9
00 23.06 ЮВ 3 н/о н/о -32.6 -35.7 74 -42 -42 опасность
обморожения
983.8 979.6
01 23.06 В 3 н/о н/о -32.7 -35.8 74 -42 -42 опасность
обморожения
984.4 980.2
02 23.06 В 1 н/о н/о -32.8 -35.9 74 -37 -37 опасность
обморожения
984.9 980.7
03 23.06 В 2 н/о н/о -33.6 -36.9 72 -42 -42 опасность
обморожения
985.3 981.1
04 23.06 В 2 н/о н/о -35.6 -38.9 72 -44 -44 опасность
обморожения
985.4 981.2
05 23.06 ЮВ 3 н/о н/о -35.2 -38.6 71 -45 -45 опасность
обморожения
985.2 981.0
06 23.06 ЮВ 3 н/о н/о -31.7 -34.8 74 -41 -41 опасность
обморожения
985.6 981.4
07 23.06 ЮВ 2 н/о н/о -32.6 -35.8 73 -39 -39 опасность
обморожения
985.6 981.4
08 23.06 ЮВ 2 н/о н/о -31.3 -34.3 75 -38 -38 опасность
обморожения
985.7 981.5
09 23.06 ЮВ 3 н/о н/о -30.6 -33.6 75 -40 -40 опасность
обморожения
985.8 981.7
12 23.06 В 2 н/о н/о -28.9 -31.9 75 -36 -36 опасность
обморожения
986.1 982.0
13 23.06 СВ 3 н/о н/о -26.6 -29.5 76 -36 -36 опасность
обморожения
986.2 982.1
14 23.06 В 2 н/о н/о -26.6 -29.4 77 -32 -32 опасность
обморожения
986.5 982.4
15 23.06 В 2 н/о н/о -26.1 -28.8 78 -32 -32 опасность
обморожения
986.6 982.5
17 23.06 СВ 3 н/о н/о -25.3 -27.6 81 -33 -33 опасность
обморожения
985.8 981.7
19 23.06 В 2 н/о н/о -25.1 -27.4 81 -32 -32 опасность
обморожения
986.0 981.9
20 23.06 В 4 н/о н/о -24.6 -26.9 81 -34 -34 опасность
обморожения
985.8 981.8
22 23.06 В 3 н/о н/о -27.7 -30.2 79 -36 -36 опасность
обморожения
985.4 981.3
00 24.06 В 6 н/о н/о -26.0 -28.3 81 -38 -38 опасность
обморожения
985.5 981.4
01 24.06 В 8 н/о н/о -23.8 -26.0 82 -37 -37 опасность
обморожения
985.2 981.2
03 24.06 В 9 н/о н/о -23.7 -25.9 82 -38 -38 опасность
обморожения
984.7 980.7
05 24.06 В 6 н/о н/о -24.0 -26.2 82 -36 -36 опасность
обморожения
984.7 980.7
06 24.06 В 5 н/о н/о -24.9 -27.2 81 -36 -36 опасность
обморожения
984.7 980.7
08 24.06 В 5 н/о н/о -26.4 -28.9 79 -38 -38 опасность
обморожения
984.6 980.5
10 24.06 В 5 н/о н/о -28.9 -31.7 77 -41 -41 опасность
обморожения
984.6 980.5
13 24.06 В 5 н/о н/о -28.2 -30.9 78 -40 -40 опасность
обморожения
984.4 980.3
15 24.06 В 8 н/о н/о -25.4 -27.8 80 -40 -40 опасность
обморожения
984.2 980.1
17 24.06 В 7 н/о н/о -25.0 -27.3 81 -38 -38 опасность
обморожения
984.3 980.3
18 24.06 В 7 н/о н/о -26.0 -28.5 79 -39 -39 опасность
обморожения
984.4 980.3
20 24.06 В 5 н/о н/о -25.9 -28.2 81 -38 -38 опасность
обморожения
984.5 980.4
22 24.06 В 6 н/о н/о -25.6 -28.0 80 -38 -38 опасность
обморожения
984.7 980.6
01 25.06 В 6 н/о н/о -25.8 -28.2 80 -38 -38 опасность
обморожения
984.4 980.3
03 25.06 СВ 6 н/о н/о -26.0 -28.4 80 -38 -38 опасность
обморожения
984.8 980.7
04 25.06 В 7 н/о н/о -25.7 -28.1 80 -39 -39 опасность
обморожения
984.6 980.5
06 25.06 В 6 н/о н/о -25.6 -28.0 80 -38 -38 опасность
обморожения
984.5 980.4
08 25.06 В 7 н/о н/о -25.5 -27.8 81 -39 -39 опасность
обморожения
984.7 980.6
11 25.06 В 8 н/о н/о -25.1 -27.4 81 -39 -39 опасность
обморожения
984.4 980.3
13 25.06 В 9 н/о н/о -24.8 -27.0 82 -40 -40 опасность
обморожения
984.5 980.5
15 25.06 В 10 н/о н/о -25.3 -27.6 81 -41 -41 опасность
обморожения
984.6 980.5
16 25.06 В 10 н/о н/о -25.2 -27.5 81 -41 -41 опасность
обморожения
984.4 980.3
18 25.06 В 11 н/о н/о -24.7 -27.0 81 -41 -41 опасность
обморожения
983.7 979.7
20 25.06 В 11 н/о н/о -24.8 -27.1 81 -41 -41 опасность
обморожения
983.7 979.7
23 25.06 В 13 н/о н/о -25.0 -27.4 80 -42 -42 опасность
обморожения
981.7 977.7
01 26.06 В 14 н/о н/о -24.7 -27.0 81 -42 -42 опасность
обморожения
981.0 977.0

 

Местоположение метеостанции Halley (Антарктида): широта -75.50 долгота -26.65 высота над уровнем моря 30 м.

В архиве по умолчанию представлена погода в Halley за последнюю неделю. Архивные данные за месяц целиком и за предыдущие месяцы, начиная с января 2011 года, Вы можете получить, выбрав интересующий диапазон дат из раскрывающегося списка и нажав кнопку "Ввод!".

Внимание! Время в таблицах - всемирное. Для получения местного времени необходимо прибавить поправку, которая в Halley равна 0 ч.

Смотрите также архив погоды в соседних городах и на ближайших метеорологических станциях:

Погода в Base Belgrano Ii (Антарктида) (332 км)
Погода в Nordenskiold Base (Антарктида) (482 км)
Погода в Kohnen Ep9 (Антарктида) (750 км)
Погода в Neumayer (Антарктида) (797 км)
Погода в S.a.n.a.e. aws (Антарктида) (851 км)
Погода в Troll (Антарктида) (970 км)
Погода в Butler Island (Антарктида) (1082 км)
Погода в Sky Blue (Антарктида) (1250 км)
Погода в Maitri (Антарктида) (1317 км)
Погода в Novolazarevskaja (Антарктида) (1318 км)

Пояснения к столбцам:

Ветер - указаны скорость ветра в м/с - средняя за 10 мин, порывы в срок и между сроками (в фигурных скобках) и направление, откуда дует ветер: С - северный, СВ - северо-восточный, В - восточный, ЮВ - юго-восточный, Ю - южный, ЮЗ - юго-западный, З - западный, СЗ - северо-западный.
Видимость - горизонтальная дальность видимости в метрах или километрах. При видимости от 1 до 10 км при отсутствии осадков обычно наблюдается дымка, при ухудшении видимости до 1 км и менее - туман. В сухую погоду видимость может ухудшаться дымом, пылью или мглою.
Явления - указаны атмосферные явления, наблюдавшиеся в срок или в последний час перед сроком; фигурными скобками обозначены явления, наблюдавшиеся между сроками (за 1-3 часа до срока); квадратными скобками обозначены град или гололедные отложения с указанием их диаметра в мм.
Облачность - указаны через наклонную черту общая и нижняя облачность в баллах и высота нижней границы облаков в метрах; квадратными скобками обозначены формы облаков: Ci - перистые, Cs - перисто-слоистые, Cc - перисто-кучевые, Ac - высококучевые, As - высокослоистые, Sc - слоисто-кучевые, Ns - слоисто-дождевые, Cu - кучевые, Cb - кучево-дождевые. Подробнее классификацию облаков см. в Атласе облаков (PDF).
T - Температура воздуха - температура, измеренная на высоте 2 м над землей.
Td - Температура точки росы - температура, при понижении до которой содержащийся в воздухе водяной пар достигнет насыщения.
f - Относительная влажность воздуха - влажноcть воздуха, измеренная на высоте 2 м над землей.
Te - Эффективная температура - температура, которую ощущает одетый по сезону человек в тени. Характеристика душности погоды. При расчете учитывается влияние влажности воздуха и скорости ветра на теплоощущения человека.
Tes - Эффективная температура на солнце - температура, которую ощущает человек, с поправкой на солнечный нагрев. Характеристика знойности погоды. Зависит от высоты солнца над горизонтом, облачности и скорости ветра. Ночью, в пасмурную погоду, а также при ветре 12 м/с и более поправка равна нулю.
P - Атмосферное давление - приведенное к уровню моря атмосферное давление.
Po - Атмосферное давление - измеренное на уровне метеостанции атмосферное давление.
Tmin - Минимальная температура - минимум температуры воздуха на высоте 2 м над землей.
Tmax - Максимальная температура - максимум температуры воздуха на высоте 2 м над землей.
R - Количество осадков - Количество выпавших осадков за период времени, мм. При наведении курсора мыши на число - период времени, за который выпало указанное количество осадков.
R24 - Количество осадков - Количество выпавших осадков за 24 часа, мм.
S - Снежный покров - Высота снежного покрова, см. При наведении курсора мыши на число - состояние снежного покрова и степень покрытия местности в баллах.